sat.trackr.live / text

‹ back to catalog

STARLINK-31882

NORAD 59855 · 2024-097W

PAYLOAD ACTIVE UNKNOWN

§ Identity

Operator
Country
US
Launch date
2024-05-23
Launch site
AFETR
Launch vehicle
Mass (kg)
RCS (m²)

Purposes: comms

External: N2YO · Heavens-Above · Gunter

§ Orbital elements

Epoch: 2026-05-24T20:11:29.763744Z

Period
94.27 min
Inclination
42.9995°
Eccentricity
0.0000834
Mean motion
15.27588272 rev/d
Perigee alt
482.5 km
Apogee alt
483.6 km
Semi-major
6,861.2 km
B*
1.7847e-4
RAAN
197.3212°
Arg perigee
312.7563°
Mean anomaly
47.3218°
Rev number
11,364

§ Raw data

STARLINK-318821 59855U 24097W   26144.84131671  .00004654  00000+0  17847-3 0  99902 59855  42.9995 197.3212 0000834 312.7563  47.3218 15.27588272113646

JSON: /api/v1/satellites/59855 · /tle

For live sub-satellite position, see the globe view (requires WebGL).

§ Visibility from observer

Set your observer location to see the next 7 days of passes ≥ 10°. The values pass through the URL so the page stays shareable.

No JS? Fill the form by hand. The geolocation button needs JavaScript.